EW5586 Weather Reports


time (UTC)temp
F
wind
direction
speed
knots
gust
knots
rain 1hr
in
rain 24hr
in
rain mn
in
humidity
%
barometer
mb
20260505121751 59 214 8.7 16.5 0.00 0.00 0.00 80 1000.6
20260505121251 59 207 8.7 16.5 0.00 0.00 0.00 81 1000.6
20260505120247 58 209 10.4 15.6 0.00 0.00 0.00 81 1000.6
20260505115747 58 218 10.4 15.6 0.00 0.00 0.00 83 1000.6
20260505115247 58 198 9.6 13.9 0.00 0.00 0.00 83 1000.5
20260505114747 58 229 8.7 13.9 0.00 0.00 0.00 83 1000.4
20260505113747 58 0 8.7 13.9 0.00 0.00 0.00 87 1000.5
20260505113248 56 211 8.7 13.9 0.00 0.00 0.00 88 1000.5
20260505112747 55 207 8.7 14.8 0.00 0.00 0.00 87 1000.6
20260505112248 55 181 7.8 14.8 0.00 0.00 0.00 89 1000.5
20260505111743 55 208 8.7 13.0 0.00 0.00 0.00 87 1000.5
20260505111244 56 200 8.7 13.0 0.00 0.00 0.00 89 1000.5
20260505110743 55 198 7.0 10.4 0.00 0.00 0.00 88 1000.4
20260505110243 55 213 7.0 9.6 0.00 0.00 0.00 87 1000.4
20260505102145 0 0.0 0.0 0.00 0.00 0.00 1000.4
20260505101551 0 0.0 0.0 0.00 0.00 0.00 1000.0
20260505101049 0 0.0 0.0 0.00 0.00 0.00 999.9
20260505100546 0 0.0 0.0 0.00 0.00 0.00 1000.1
20260505100047 0 0.0 0.0 0.00 0.00 0.00 1000.1
20260505095541 0 0.0 0.0 0.00 0.00 0.00 1000.1
20260505094949 0 0.0 0.0 0.00 0.00 0.00 1000.1
20260505094446 0 0.0 0.0 0.00 0.00 0.00 1000.3
20260505093945 0 0.0 0.0 0.00 0.00 0.00 1000.2
20260505093435 0 0.0 0.0 0.00 0.00 0.00 1000.3
20260505092844 0 0.0 0.0 0.00 0.00 0.00 1000.2
20260505092343 0 0.0 0.0 0.00 0.00 0.00 1000.2
20260505091751 0 0.0 0.0 0.00 0.00 0.00 1000.1
20260505091245 0 0.0 0.0 0.00 0.00 0.00 1000.1
20260505090743 0 0.0 0.0 0.00 0.00 0.00 1000.2
20260505085636 0 0.0 0.0 0.00 0.00 0.00 1000.4
20260505085041 57 205 8.7 13.0 0.00 0.00 0.00 75 1000.5
20260505084451 57 205 8.7 13.0 0.00 0.00 0.00 75 1000.7
20260505083935 57 205 8.7 13.0 0.00 0.00 0.00 75 1000.7
20260505082932 57 194 9.6 13.9 0.00 0.00 0.00 76 1000.7
20260505082433 57 197 9.6 13.9 0.00 0.00 0.00 76 1000.8
20260505081933 56 227 8.7 13.9 0.00 0.00 0.00 78 1000.8
20260505081432 56 238 8.7 13.0 0.00 0.00 0.00 80 1000.8
20260505080933 56 187 9.6 13.9 0.00 0.00 0.00 81 1000.9
20260505080432 56 224 8.7 13.9 0.00 0.00 0.00 82 1000.9
20260505075933 56 215 8.7 13.9 0.00 0.00 0.00 80 1001.0
20260505075433 56 0 7.8 14.8 0.00 0.00 0.00 82 1000.9
20260505074926 56 0 8.7 14.8 0.00 0.00 0.00 82 1000.9
20260505074421 55 219 10.4 16.5 0.00 0.00 0.00 83 1001.0
20260505073914 55 191 11.3 16.5 0.00 0.00 0.00 81 1000.9
20260505072357 55 214 9.6 14.8 0.00 0.00 0.00 79 1000.8
20260505071850 54 209 9.6 13.9 0.00 0.00 0.00 77 1000.9
20260505071345 54 205 9.6 14.8 0.00 0.00 0.00 75 1000.9
20260505070838 54 0 8.7 13.0 0.00 0.00 0.00 75 1000.8
20260505070332 54 198 8.7 13.0 0.00 0.00 0.00 73 1000.8
20260505065320 57 211 8.7 13.0 0.00 0.00 0.00 65 1000.6
20260505064308 57 224 7.0 9.6 0.00 0.00 0.00 64 1000.5
20260505063802 57 232 7.0 9.6 0.00 0.00 0.00 64 1000.5
20260505063256 57 221 7.0 10.4 0.00 0.00 0.00 64 1000.5
20260505062751 58 202 7.0 10.4 0.00 0.00 0.00 63 1000.6
20260505062244 57 192 6.1 9.6 0.00 0.00 0.00 64 1000.6
20260505060726 57 206 6.1 8.7 0.00 0.00 0.00 64 1000.6
20260505060220 57 202 7.0 10.4 0.00 0.00 0.00 63 1000.6
20260505055714 58 192 7.0 10.4 0.00 0.00 0.00 63 1000.7
20260505055209 58 215 6.1 8.7 0.00 0.01 0.00 63 1000.7
20260505054702 58 205 5.2 7.0 0.00 0.01 0.00 63 1000.8
20260505054156 57 192 5.2 7.8 0.00 0.01 0.00 63 1000.7
20260505053650 58 209 5.2 7.8 0.00 0.01 0.00 63 1000.7
20260505053145 57 209 4.3 7.0 0.00 0.01 0.00 64 1000.8
20260505052638 57 205 4.3 7.0 0.00 0.01 0.00 64 1000.8
20260505052135 57 182 4.3 7.0 0.00 0.01 0.00 64 1000.9
20260505051634 56 191 3.5 7.0 0.00 0.01 0.00 66 1000.9
20260505051135 55 225 2.6 4.3 0.00 0.01 0.00 70 1000.9
20260505050130 54 213 1.7 3.5 0.00 0.01 0.00 73 1000.9
20260505041619 55 216 3.5 4.3 0.00 0.01 0.00 71 1001.5
20260505041119 56 211 2.6 4.3 0.00 0.01 0.00 70 1001.6
20260505040619 57 211 2.6 5.2 0.00 0.01 0.00 67 1001.5
20260505040118 57 227 2.6 5.2 0.00 0.01 0.00 65 1001.6
20260505035114 56 225 2.6 5.2 0.00 0.01 0.01 68 1001.5
20260505034613 57 244 2.6 4.3 0.00 0.01 0.01 67 1001.5
20260505034112 58 200 3.5 7.0 0.00 0.01 0.01 63 1001.6
20260505033607 60 193 4.3 7.8 0.00 0.01 0.01 58 1001.5
20260505033102 61 217 4.3 8.7 0.00 0.01 0.01 57 1001.5
20260505032554 61 214 4.3 8.7 0.00 0.01 0.01 58 1001.6
20260505031046 60 177 4.3 8.7 0.00 0.01 0.01 58 1001.8
20260505030546 60 221 3.5 7.0 0.00 0.01 0.01 59 1001.8
20260505030047 60 211 4.3 7.8 0.00 0.01 0.01 60 1001.7
20260505025544 60 221 5.2 8.7 0.00 0.01 0.01 61 1001.8
20260505025044 59 197 6.1 8.7 0.00 0.01 0.01 62 1001.9
20260505024544 59 0 6.1 8.7 0.00 0.01 0.01 63 1001.9
20260505024044 59 193 6.1 8.7 0.00 0.01 0.01 62 1001.9
20260505023544 60 215 5.2 8.7 0.00 0.01 0.01 62 1001.9
20260505023044 59 0 5.2 7.8 0.00 0.01 0.01 62 1002.0
20260505022544 59 222 5.2 7.8 0.00 0.01 0.01 63 1001.9
20260505022045 59 232 6.1 7.8 0.00 0.01 0.01 63 1002.0
20260505021545 60 187 5.2 7.8 0.00 0.01 0.01 62 1002.0
20260505021044 60 194 5.2 8.7 0.00 0.01 0.01 62 1002.1
20260505020545 60 207 5.2 8.7 0.00 0.01 0.01 62 1002.2
20260505020045 60 231 4.3 7.8 0.00 0.01 0.01 63 1002.1
20260505015538 59 217 4.3 7.8 0.00 0.01 0.01 64 1002.1
20260505015038 59 216 4.3 8.7 0.00 0.01 0.01 66 1002.2
20260505014539 58 0 5.2 8.7 0.00 0.01 0.01 68 1002.2
20260505014039 57 237 4.3 7.0 0.00 0.01 0.01 71 1002.3
20260505013538 56 219 3.5 7.0 0.00 0.01 0.01 73 1002.2
20260505013038 56 201 3.5 5.2 0.00 0.01 0.01 73 1002.2
20260505012538 57 0 4.3 7.0 0.00 0.01 0.01 70 1002.3
20260505012038 58 196 5.2 7.8 0.00 0.01 0.01 68 1002.4
20260505011538 59 209 5.2 7.8 0.00 0.01 0.01 66 1002.4
20260505011038 60 227 5.2 8.7 0.00 0.01 0.01 64 1002.4
20260505010538 60 198 6.1 8.7 0.00 0.01 0.01 63 1002.4
20260505010034 60 225 6.1 10.4 0.00 0.01 0.01 63 1002.3
20260505005035 60 220 5.2 9.6 0.00 0.01 0.01 62 1002.2
20260505004535 61 218 6.1 8.7 0.00 0.01 0.01 62 1002.2
20260505003534 59 225 5.2 9.6 0.00 0.01 0.01 65 1002.2
20260505003034 58 230 5.2 7.0 0.00 0.01 0.01 67 1002.0
20260505002534 58 194 5.2 7.0 0.00 0.01 0.01 68 1002.1
20260505002036 58 0 5.2 7.0 0.00 0.01 0.01 69 1002.1
20260505001534 57 219 5.2 7.0 0.00 0.01 0.01 70 1002.1
20260505001034 57 0 5.2 7.0 0.00 0.01 0.01 71 1002.0
20260505000535 56 215 5.2 7.0 0.00 0.01 0.01 73 1002.0
20260505000035 55 0 4.3 7.0 0.00 0.01 0.01 75 1001.9
20260504235534 54 219 3.5 7.0 0.00 0.01 0.01 75 1001.9
20260504235035 55 192 3.5 5.2 0.00 0.01 0.01 74 1001.9
20260504234535 56 0 3.5 7.0 0.00 0.01 0.01 72 1001.8
20260504233534 57 216 5.2 10.4 0.00 0.01 0.01 69 1001.8
20260504233034 58 211 6.1 10.4 0.00 0.01 0.01 68 1001.9
20260504232535 59 0 7.0 9.6 0.00 0.01 0.01 66 1001.9
20260504232034 58 213 6.1 9.6 0.00 0.01 0.01 67 1002.0
20260504231535 58 221 4.3 8.7 0.00 0.01 0.01 66 1001.9
20260504231032 59 208 4.3 8.7 0.00 0.01 0.01 67 1001.9
20260504230532 58 197 6.1 9.6 0.00 0.01 0.01 68 1001.9
20260504230032 58 213 7.0 10.4 0.00 0.01 0.01 68 1001.9
20260504225033 58 201 7.8 12.2 0.00 0.01 0.01 67 1001.9
20260504224531 59 215 7.8 12.2 0.00 0.01 0.01 64 1002.0
20260504223522 60 233 8.7 13.9 0.00 0.01 0.01 62 1002.1
20260504223022 61 0 7.8 16.5 0.00 0.01 0.01 60 1002.2
20260504222521 62 237 8.7 16.5 0.00 0.01 0.01 59 1002.2
20260504222020 62 213 10.4 16.5 0.00 0.01 0.01 59 1002.2
20260504221518 62 209 10.4 17.4 0.00 0.01 0.01 58 1002.2
20260504220516 61 240 10.4 16.5 0.00 0.01 0.01 60 1002.2
20260504215513 62 213 11.3 17.4 0.00 0.01 0.01 59 1002.2
20260504215013 61 194 12.2 17.4 0.00 0.01 0.01 60 1002.3
20260504214513 62 226 11.3 17.4 0.00 0.01 0.01 59 1002.2
20260504213512 61 218 11.3 16.5 0.00 0.01 0.01 60 1002.2
20260504213011 60 216 11.3 17.4 0.00 0.01 0.01 61 1002.3
20260504212511 61 218 11.3 17.4 0.00 0.01 0.01 61 1002.3
20260504212005 60 206 11.3 16.5 0.00 0.01 0.01 61 1002.3
20260504211500 60 197 11.3 15.6 0.00 0.01 0.01 61 1002.3
20260504210953 60 220 12.2 16.5 0.00 0.01 0.01 61 1002.4
20260504210447 60 221 12.2 16.5 0.00 0.01 0.01 62 1002.5
20260504205942 60 207 12.2 19.1 0.00 0.01 0.01 62 1002.5
20260504205435 60 179 12.2 18.2 0.00 0.01 0.01 62 1002.6
20260504204929 60 211 12.2 19.1 0.00 0.01 0.01 62 1002.7
20260504204424 61 209 13.0 19.1 0.00 0.01 0.01 60 1002.7
20260504203416 59 207 12.2 17.4 0.00 0.01 0.01 64 1002.7
20260504202916 59 206 11.3 16.5 0.00 0.01 0.01 64 1002.7
20260504202416 58 213 10.4 16.5 0.00 0.01 0.01 65 1002.7
20260504201916 58 205 11.3 15.6 0.00 0.01 0.01 65 1002.9
20260504200916 60 220 12.2 19.1 0.00 0.01 0.01 61 1002.9
20260504200416 59 250 12.2 18.2 0.00 0.01 0.01 62 1003.0
20260504195915 59 190 12.2 19.1 0.00 0.01 0.01 61 1003.0
20260504195417 60 221 13.0 19.1 0.00 0.01 0.01 60 1003.1
20260504194916 62 205 13.0 19.1 0.00 0.01 0.01 56 1003.2
20260504194415 61 214 13.0 19.1 0.00 0.01 0.01 56 1003.2
20260504193415 62 0 12.2 20.0 0.00 0.01 0.01 55 1003.4
20260504192916 61 234 12.2 20.0 0.00 0.01 0.01 57 1003.5
20260504191915 59 219 13.0 20.9 0.00 0.01 0.01 61 1003.6
20260504191409 59 194 13.9 21.7 0.00 0.01 0.01 60 1003.5
20260504190903 61 203 15.6 23.5 0.00 0.01 0.01 55 1003.6
20260504190357 62 184 16.5 24.3 0.00 0.01 0.01 55 1003.6
20260504185851 62 220 16.5 26.1 0.00 0.01 0.01 53 1003.7
20260504185345 62 183 15.6 26.1 0.00 0.01 0.01 55 1003.8
20260504184839 61 183 12.2 24.3 0.00 0.01 0.01 56 1003.7
20260504183827 59 172 12.2 19.1 0.00 0.01 0.01 61 1003.9
20260504182815 58 196 13.9 20.9 0.00 0.01 0.01 64 1003.9
20260504182309 58 207 16.5 24.3 0.00 0.01 0.01 63 1003.9
20260504181803 59 222 15.6 24.3 0.00 0.01 0.01 60 1003.9
20260504180753 58 0 15.6 21.7 0.00 0.01 0.01 60 1004.1
20260504180245 58 0 15.6 26.1 0.00 0.01 0.01 61 1004.2
20260504175739 58 0 16.5 26.1 0.00 0.01 0.01 61 1004.2
20260504175233 58 216 16.5 23.5 0.00 0.01 0.01 62 1004.2
20260504174727 57 196 17.4 27.8 0.00 0.01 0.01 64 1004.3
20260504173715 56 191 15.6 21.7 0.00 0.01 0.01 65 1004.4
20260504173210 56 210 15.6 22.6 0.00 0.01 0.01 66 1004.5
20260504172704 56 194 15.6 26.9 0.00 0.01 0.01 66 1004.5
20260504172158 57 195 16.5 26.9 0.00 0.01 0.01 65 1004.5
20260504171651 57 204 16.5 22.6 0.00 0.01 0.01 64 1004.7
20260504171145 56 199 16.5 23.5 0.00 0.01 0.01 67 1004.6
20260504170639 56 203 17.4 23.5 0.00 0.01 0.01 66 1004.7
20260504150921 53 232 13.0 20.0 0.00 0.01 0.01 70 1005.2
20260504140837 51 213 9.6 14.8 0.00 0.01 0.01 77 1005.4
20260504140340 51 213 9.6 14.8 0.00 0.01 0.01 77 1005.4
20260504130326 48 217 10.4 14.8 0.00 0.01 0.01 83 1005.6